Location: Caltech
(34.1382°N, 118.1253°W)
Time: 16:57:21
(UTC-07:00)

Oscar 11 - Visible Passes

Search period start: 24 March 2017 00:00
Search period end: 03 April 2017 00:00
Orbit: 613 x 627 km, 97.7° (Epoch: 23 March)

Date Brightness Start Highest point End Pass type
(mag) Time Alt. Az. Time Alt. Az. Time Alt. Az.
24 Mar 7.4 20:58:05 51° NE 20:58:05 51° NE 21:01:39 10° N visible
25 Mar 7.5 21:15:30 58° NNW 21:15:30 58° NNW 21:19:01 10° NNW visible
26 Mar 9.0 19:55:46 11° ENE 19:56:23 12° ENE 19:57:58 10° NE visible
26 Mar 8.2 21:32:55 43° WNW 21:32:55 43° WNW 21:36:14 10° NNW visible
27 Mar 8.5 20:13:10 18° ENE 20:13:33 19° ENE 20:16:31 10° NNE visible
27 Mar 8.9 21:50:20 28° WNW 21:50:20 28° WNW 21:53:15 10° NW visible
28 Mar 8.0 20:30:35 28° ENE 20:30:45 29° ENE 20:34:27 10° NNE visible
28 Mar 9.6 22:07:45 18° WNW 22:07:45 18° WNW 22:09:57 10° NW visible
29 Mar 7.3 20:48:01 46° ENE 20:48:01 46° ENE 20:52:07 10° N visible
29 Mar 10.1 22:25:11 11° W 22:25:11 11° W 22:25:56 10° WNW visible
30 Mar 6.9 21:05:26 74° NE 21:05:26 74° NE 21:09:34 10° N visible
31 Mar 7.4 21:22:51 64° WNW 21:22:51 64° WNW 21:26:52 10° NNW visible
01 Apr 8.8 20:03:07 14° E 20:04:11 15° ENE 20:06:34 10° NE visible
01 Apr 8.3 21:40:16 38° W 21:40:16 38° W 21:43:59 10° NNW visible
02 Apr 8.3 20:20:31 21° E 20:21:22 23° ENE 20:24:44 10° NNE visible
02 Apr 9.1 21:57:41 24° W 21:57:41 24° W 22:00:52 10° NW visible
